User: anonymous   Login
Location: Prairie State College
(41.5244°N, 87.6382°W)
Time: 19:59:24
(UTC-05:00)
Language:

ARGOS Delta rocket - Orbit

View from above orbital plane
View from above orbital plane
View from above satellite
View from above satellite

Ground track
Ground track

The orbit data is extracted from the following two-line orbital elements,

1 25637U 99008D   16125.09022466  .00000111  00000-0  34553-4 0  9990
2 25637  96.4525 115.1903 0143895 141.8569 270.5147 14.46423959906479
Epoch (UTC): 04 May 2016 02:09:55
Eccentricity: 0.0143895
inclination: 96.4525°
perigee height: 635 km
apogee height: 840 km
right ascension of ascending node: 115.1903°
argument of perigee: 141.8569°
revolutions per day: 14.46423959
mean anomaly at epoch: 270.5147°
orbit number at epoch: 90647

The dashed part of the orbit path shows where the satellite is in the earth's shadow,  

DLR